Location: Kerb�bon
(47.7970°N, 3.3487°W)
Time: 12:09:46
(UTC+00:00)

Cosmos 1610 Rocket - Pass Details

Date: 12 May 2021
Orbit: 952 x 1003 km, 82.9° (Epoch: 18 June)

Event Time Altitude Azimuth Distance (km) Brightness Sun altitude
Rises 21:58:08 0° 351° (N) 3,647 8.7 -17.6°
Reaches altitude 10° 22:00:39 10° 352° (N) 2,694 7.8 -17.8°
Maximum altitude 22:06:49 87° 82° (E) 961 4.4 -18.3°
Enters shadow 22:10:10 29° 170° (S) 1,670 5.2 -18.6°
